FW6934 Weather Reports


time (UTC)temp
C
wind
direction
speed
KPH
gust
KPH
rain 1hr
cm
rain 24hr
cm
rain mn
cm
humidity
%
barometer
mb
20260507023549 17 355 3.2 8.0 0.00 0.00 0.00 71 1007.7
20260507023002 17 5 1.6 9.7 0.00 0.00 0.00 70 1007.7
20260507022554 17 15 4.8 9.7 0.00 0.00 0.00 71 1007.7
20260507022042 18 346 3.2 8.0 0.00 0.00 0.00 71 1007.7
20260507021502 18 344 3.2 6.4 0.00 0.00 0.00 70 1007.7
20260507021055 18 355 3.2 8.0 0.00 0.00 0.00 70 1007.6
20260507020541 18 22 3.2 8.0 0.00 0.00 0.00 70 1007.7
20260507020112 18 21 3.2 8.0 0.00 0.00 0.00 70 1007.7
20260507015551 18 40 3.2 9.7 0.00 0.00 0.00 69 1007.7
20260507015039 18 44 1.6 12.9 0.00 0.00 0.00 70 1007.7
20260507014609 18 20 1.6 12.9 0.00 0.00 0.00 68 1007.8
20260507014051 19 348 4.8 9.7 0.00 0.00 0.00 69 1007.8
20260507013538 19 33 3.2 14.5 0.00 0.00 0.00 68 1007.7
20260507013003 19 336 3.2 12.9 0.00 0.00 0.00 69 1007.7
20260507012553 19 14 4.8 11.3 0.00 0.00 0.00 69 1007.7
20260507012044 20 53 1.6 9.7 0.00 0.00 0.00 68 1007.7
20260507011503 20 351 4.8 9.7 0.00 0.00 0.00 69 1007.7
20260507011053 20 16 3.2 8.0 0.00 0.00 0.00 68 1007.7
20260507010541 20 61 3.2 12.9 0.00 0.00 0.00 70 1007.7
20260507005551 20 246 1.6 12.9 0.00 0.00 0.00 71 1007.6
20260507005039 20 5 4.8 12.9 0.00 0.00 0.00 70 1007.6
20260507004500 20 5 1.6 12.9 0.00 0.00 0.00 69 1007.6
20260507004051 20 314 4.8 12.9 0.00 0.00 0.00 68 1007.6
20260507003540 20 350 6.4 14.5 0.00 0.00 0.00 68 1007.5
20260507003101 20 71 8.0 14.5 0.00 0.00 0.00 67 1007.6
20260507002548 21 355 3.2 8.0 0.00 0.00 0.00 68 1007.5
20260507002036 21 319 3.2 12.9 0.00 0.00 0.00 67 1007.5
20260507001504 21 16 4.8 12.9 0.00 0.00 0.00 68 1007.5
20260507001056 21 324 1.6 12.9 0.00 0.00 0.00 67 1007.3
20260507000546 21 321 0.0 1.6 0.00 0.00 0.00 67 1007.5
20260507000002 21 36 0.0 0.0 0.00 0.00 0.00 65 1007.3
20260506235552 21 36 0.0 6.4 0.00 0.00 0.00 65 1007.4
20260506235042 21 36 3.2 6.4 0.00 0.00 0.00 68 1007.4
20260506234612 21 30 0.0 4.8 0.00 0.00 0.00 67 1007.4
20260506234053 21 348 1.6 4.8 0.00 0.00 0.00 65 1007.3
20260506233538 20 5 0.0 6.4 0.00 0.00 0.00 66 1007.3
20260506233043 20 33 1.6 6.4 0.00 0.00 0.00 68 1007.3
20260506232532 20 351 0.0 6.4 0.00 0.00 0.00 66 1007.4
20260506232019 20 33 0.0 4.8 0.00 0.00 0.00 68 1007.3
20260506231551 20 26 0.0 4.8 0.00 0.00 0.00 68 1007.3
20260506231030 20 22 0.0 6.4 0.00 0.00 0.00 68 1007.5
20260506230517 20 9 1.6 6.4 0.00 0.00 0.00 67 1007.5
20260506230049 20 101 0.0 3.2 0.00 0.00 0.00 67 1007.5
20260506225522 20 107 0.0 6.4 0.00 0.00 0.00 68 1007.6
20260506225001 20 328 1.6 6.4 0.00 0.00 0.00 69 1007.6
20260506224522 20 25 0.0 1.6 0.00 0.00 0.00 69 1007.7
20260506224004 20 40 0.0 1.6 0.00 0.00 0.00 69 1007.7
20260506223555 19 90 0.0 1.6 0.00 0.00 0.00 67 1007.8
20260506223017 20 203 0.0 9.7 0.00 0.00 0.00 67 1007.9
20260506222606 20 76 1.6 9.7 0.00 0.00 0.00 68 1007.8
20260506222051 20 17 0.0 6.4 0.00 0.00 0.00 69 1007.9
20260506221603 20 70 0.0 11.3 0.00 0.00 0.00 68 1007.9
20260506221048 20 64 4.8 11.3 0.00 0.00 0.00 68 1007.8
20260506220539 20 68 3.2 9.7 0.00 0.00 0.00 68 1007.9
20260506220058 20 50 3.2 8.0 0.00 0.00 0.00 68 1007.8
20260506215546 20 51 1.6 6.4 0.00 0.00 0.00 67 1007.8
20260506215032 20 323 1.6 9.7 0.00 0.00 0.00 68 1007.8
20260506214555 20 81 1.6 9.7 0.00 0.00 0.00 70 1007.7
20260506214042 20 64 1.6 6.4 0.00 0.00 0.00 69 1007.7
20260506213532 19 55 3.2 6.4 0.00 0.00 0.00 67 1007.8
20260506213103 20 86 0.0 6.4 0.00 0.00 0.00 65 1007.8
20260506212533 20 5 1.6 4.8 0.00 0.00 0.00 66 1007.9
20260506212018 20 134 3.2 9.7 0.00 0.00 0.00 67 1008.0
20260506211554 19 186 0.0 9.7 0.00 0.00 0.00 68 1008.1
20260506211030 19 148 3.2 9.7 0.00 0.00 0.00 67 1008.2
20260506210517 19 111 0.0 8.0 0.00 0.00 0.00 68 1008.1
20260506210037 19 334 3.2 8.0 0.00 0.00 0.00 68 1008.2
20260506205523 19 209 0.0 3.2 0.00 0.00 0.00 69 1008.3
20260506205008 19 35 0.0 9.7 0.00 0.00 0.00 68 1008.3
20260506204527 19 94 1.6 9.7 0.00 0.00 0.00 68 1008.3
20260506204015 18 50 3.2 12.9 0.00 0.00 0.00 68 1008.2
20260506203503 19 272 4.8 12.9 0.00 0.00 0.00 67 1008.2
20260506203023 19 158 3.2 12.9 0.00 0.00 0.00 67 1008.1
20260506202539 19 349 0.0 9.7 0.00 0.00 0.00 69 1008.0
20260506202106 18 243 1.6 9.7 0.00 0.00 0.00 68 1008.1
20260506201532 18 355 1.6 9.7 0.00 0.00 0.00 69 1008.1
20260506201007 20 180 0.0 11.3 0.00 0.00 0.00 66 1008.3
20260506200558 20 190 3.2 11.3 0.00 0.00 0.00 71 1008.3
20260506200014 18 40 3.2 9.7 0.00 0.00 0.00 72 1008.3
20260506195604 18 155 0.0 9.7 0.00 0.00 0.00 70 1008.5
20260506195051 18 154 4.8 9.7 0.00 0.00 0.00 71 1008.5
20260506194525 18 192 3.2 6.4 0.00 0.00 0.00 72 1008.6
20260506194006 18 267 3.2 6.4 0.00 0.00 0.00 70 1008.8
20260506193555 18 84 3.2 6.4 0.00 0.00 0.00 69 1008.8
20260506193005 18 16 0.0 8.0 0.00 0.00 0.00 72 1008.7
20260506192556 18 86 3.2 8.0 0.00 0.00 0.00 72 1008.7
20260506192032 17 342 0.0 6.4 0.00 0.00 0.00 73 1008.8
20260506191554 17 305 1.6 6.4 0.00 0.00 0.00 75 1008.8
20260506191039 17 5 1.6 4.8 0.00 0.00 0.00 73 1008.7
20260506190525 17 85 0.0 8.0 0.00 0.00 0.00 75 1008.7
20260506190032 17 261 1.6 8.0 0.00 0.00 0.00 76 1008.7
20260506185520 17 87 0.0 11.3 0.00 0.00 0.00 74 1008.8
20260506185009 17 195 3.2 11.3 0.00 0.00 0.00 74 1008.7
20260506184528 17 278 4.8 11.3 0.00 0.00 0.00 75 1008.8
20260506184019 16 72 3.2 8.0 0.00 0.00 0.00 75 1008.6
20260506183505 16 301 3.2 8.0 0.00 0.00 0.00 75 1008.5
20260506183045 16 193 1.6 8.0 0.00 0.00 0.00 75 1008.5
20260506182523 16 123 1.6 8.0 0.00 0.00 0.00 76 1008.6
20260506182011 16 184 1.6 6.4 0.00 0.00 0.00 75 1008.7
20260506181537 16 121 1.6 8.0 0.00 0.00 0.00 77 1008.7
20260506181019 16 148 1.6 9.7 0.00 0.00 0.00 76 1008.8
20260506180507 16 114 1.6 9.7 0.00 0.00 0.00 73 1008.8
20260506180028 17 290 3.2 8.0 0.00 0.00 0.00 74 1008.9
20260506175514 16 161 1.6 6.4 0.00 0.00 0.00 76 1008.8
20260506175057 16 158 0.0 9.7 0.00 0.00 0.00 76 1008.8
20260506174513 16 162 1.6 9.7 0.00 0.00 0.00 75 1008.8
20260506174002 16 278 3.2 8.0 0.00 0.00 0.00 76 1008.8
20260506173551 16 256 1.6 6.4 0.00 0.00 0.00 76 1008.8
20260506173010 16 306 0.0 4.8 0.00 0.00 0.00 76 1008.6
20260506172556 16 65 1.6 4.8 0.00 0.00 0.00 77 1008.6
20260506172015 16 319 1.6 8.0 0.00 0.00 0.00 78 1008.5
20260506171542 15 347 1.6 8.0 0.00 0.00 0.00 78 1008.6
20260506171009 15 170 1.6 6.4 0.00 0.00 0.00 78 1008.5
20260506170555 15 134 3.2 6.4 0.00 0.00 0.00 78 1008.5
20260506170014 15 169 0.0 4.8 0.00 0.00 0.00 80 1008.7
20260506165603 15 172 0.0 4.8 0.00 0.00 0.00 79 1008.7
20260506165051 15 173 1.6 8.0 0.00 0.00 0.00 79 1008.7
20260506164510 15 184 1.6 8.0 0.00 0.00 0.00 79 1008.7
20260506164102 15 49 0.0 3.2 0.00 0.00 0.00 79 1008.8
20260506163545 15 49 0.0 3.2 0.00 0.00 0.00 79 1008.7
20260506163003 15 49 0.0 3.2 0.00 0.00 0.00 79 1008.6
20260506162555 15 49 1.6 3.2 0.00 0.00 0.00 80 1008.7
20260506162041 15 49 0.0 4.8 0.00 0.00 0.00 80 1008.7
20260506161511 15 49 1.6 4.8 0.00 0.00 0.00 80 1008.7
20260506161102 15 48 1.6 4.8 0.00 0.00 0.00 80 1008.6
20260506160541 15 25 0.0 4.8 0.00 0.00 0.00 80 1008.5
20260506160115 14 71 1.6 6.4 0.00 0.00 0.00 81 1008.2
20260506155548 14 51 1.6 4.8 0.00 0.00 0.00 81 1008.4
20260506155034 14 294 0.0 3.2 0.00 0.00 0.00 81 1008.3
20260506154604 13 286 0.0 4.8 0.00 0.00 0.00 81 1008.0
20260506154046 13 286 0.0 6.4 0.00 0.00 0.00 82 1008.1
20260506153533 13 258 3.2 6.4 0.00 0.00 0.00 83 1008.0
20260506153056 13 214 0.0 4.8 0.00 0.00 0.00 84 1007.8
20260506152541 12 228 0.0 4.8 0.00 0.00 0.00 84 1007.9
20260506152026 12 316 0.0 6.4 0.00 0.00 0.00 85 1008.3
20260506151547 12 5 0.0 6.4 0.00 0.00 0.00 85 1008.5
20260506151014 12 263 0.0 8.0 0.00 0.00 0.00 85 1008.6
20260506150554 12 283 1.6 8.0 0.00 0.00 0.00 85 1008.7
20260506150012 12 73 0.0 9.7 0.00 0.00 0.00 86 1008.7
20260506145604 12 33 3.2 9.7 0.00 0.00 0.00 86 1008.8
20260506145054 12 246 0.0 6.4 0.00 0.00 0.00 86 1008.6
20260506144518 12 244 0.0 6.4 0.00 0.00 0.00 86 1008.6
20260506144107 12 5 0.0 4.8 0.00 0.00 0.00 86 1008.6
20260506143547 12 286 0.0 4.8 0.00 0.00 0.00 86 1008.5
20260506143007 12 293 1.6 3.2 0.00 0.00 0.00 87 1008.4
20260506142557 12 320 0.0 6.4 0.00 0.00 0.00 87 1008.4
20260506142041 12 320 1.6 6.4 0.00 0.00 0.00 87 1008.2
20260506141508 12 294 0.0 0.0 0.00 0.00 0.00 87 1008.0
20260506141054 12 294 0.0 0.0 0.00 0.00 0.00 87 1008.0
20260506140542 12 294 0.0 0.0 0.00 0.00 0.00 87 1007.6
20260506140002 12 292 0.0 0.0 0.00 0.00 0.00 87 1007.6
20260506135551 12 292 0.0 0.0 0.00 0.00 0.00 86 1007.6
20260506135038 12 292 0.0 0.0 0.00 0.00 0.00 86 1007.5
20260506134511 12 292 0.0 0.0 0.00 0.00 0.00 86 1007.5
20260506134059 12 292 0.0 0.0 0.00 0.00 0.00 86 1007.5
20260506133548 12 292 0.0 0.0 0.00 0.00 0.00 86 1007.5
20260506133012 12 292 0.0 0.0 0.00 0.00 0.00 85 1007.5
20260506132557 12 292 0.0 0.0 0.00 0.00 0.00 85 1007.4
20260506132039 12 292 0.0 0.0 0.00 0.00 0.00 85 1007.4
20260506131506 12 292 0.0 0.0 0.00 0.00 0.00 85 1007.4
20260506131059 12 292 0.0 0.0 0.00 0.00 0.00 85 1007.3
20260506130544 13 292 0.0 0.0 0.00 0.00 0.00 85 1007.2
20260506130009 13 292 0.0 0.0 0.00 0.00 0.00 85 1007.1
20260506125554 13 292 0.0 0.0 0.00 0.00 0.00 85 1007.0
20260506125040 13 292 0.0 0.0 0.00 0.00 0.00 85 1007.1
20260506124501 13 292 0.0 0.0 0.00 0.00 0.00 85 1007.1
20260506124051 13 292 0.0 0.0 0.00 0.00 0.00 85 1007.0
20260506123539 13 292 0.0 0.0 0.00 0.00 0.00 85 1006.9
20260506123100 13 292 0.0 0.0 0.00 0.00 0.00 85 1006.9
20260506122547 13 292 0.0 1.6 0.00 0.00 0.00 85 1006.9
20260506122036 13 292 0.0 1.6 0.00 0.00 0.00 85 1006.9
20260506121600 13 292 0.0 0.0 0.00 0.00 0.00 85 1007.0
20260506121049 13 292 0.0 0.0 0.00 0.00 0.00 85 1007.1
20260506120537 13 292 0.0 1.6 0.00 0.00 0.00 85 1007.1
20260506120058 13 292 0.0 0.0 0.00 0.00 0.00 85 1007.1
20260506115546 13 292 0.0 1.6 0.00 0.00 0.00 85 1007.1
20260506115035 13 292 0.0 4.8 0.00 0.00 0.00 85 1007.0
20260506114558 13 292 0.0 4.8 0.00 0.00 0.00 85 1006.9
20260506114046 13 292 0.0 4.8 0.00 0.00 0.00 85 1006.9
20260506113535 13 292 0.0 4.8 0.00 0.00 0.00 85 1006.8
20260506113058 13 14 0.0 6.4 0.00 0.00 0.00 85 1006.9
20260506112547 13 14 1.6 6.4 0.00 0.00 0.00 85 1006.8
20260506112034 13 348 0.0 0.0 0.00 0.00 0.00 85 1006.7
20260506111557 13 348 0.0 0.0 0.00 0.00 0.00 85 1006.7
20260506111046 13 348 0.0 0.0 0.00 0.00 0.00 85 1006.7
20260506110538 13 348 0.0 0.0 0.00 0.00 0.00 85 1006.5
20260506110008 13 348 0.0 0.0 0.00 0.00 0.00 85 1006.5
20260506105554 13 348 0.0 0.0 0.00 0.00 0.00 85 1006.4
20260506105041 13 348 0.0 0.0 0.00 0.00 0.00 85 1006.2
20260506104502 13 348 0.0 0.0 0.00 0.00 0.00 85 1006.2
20260506104052 13 348 0.0 0.0 0.00 0.00 0.00 85 1006.1
20260506103541 13 348 0.0 0.0 0.00 0.00 0.00 85 1006.0
20260506103003 13 348 0.0 0.0 0.00 0.00 0.00 85 1005.9
20260506102552 13 348 0.0 0.0 0.00 0.00 0.00 85 1005.9
20260506102040 13 348 0.0 0.0 0.00 0.00 0.00 85 1005.8
20260506101603 13 348 0.0 0.0 0.00 0.00 0.00 85 1005.9
20260506101051 13 348 0.0 0.0 0.00 0.00 0.00 85 1005.7
20260506100540 13 348 0.0 0.0 0.00 0.00 0.00 86 1005.7
20260506100100 13 348 0.0 0.0 0.00 0.00 0.00 86 1005.7
20260506095549 13 348 0.0 0.0 0.00 0.00 0.00 86 1005.8
20260506095037 13 348 0.0 0.0 0.00 0.00 0.00 85 1005.7
20260506094607 13 348 0.0 0.0 0.00 0.00 0.00 85 1005.7
20260506094046 13 348 0.0 0.0 0.00 0.00 0.00 85 1005.7
20260506093534 13 348 0.0 0.0 0.00 0.00 0.00 85 1005.6
20260506093058 13 348 0.0 0.0 0.00 0.00 0.00 85 1005.5
20260506092546 13 348 0.0 0.0 0.00 0.00 0.00 85 1005.6
20260506092035 13 348 0.0 0.0 0.00 0.00 0.00 85 1005.6
20260506091606 13 348 0.0 0.0 0.00 0.00 0.00 85 1005.5
20260506091045 13 348 0.0 0.0 0.00 0.00 0.00 85 1005.5
20260506090533 13 348 0.0 0.0 0.00 0.00 0.00 85 1005.5
20260506090058 13 348 0.0 0.0 0.00 0.00 0.00 85 1005.5
20260506085542 13 348 0.0 0.0 0.00 0.00 0.00 85 1005.5
20260506085031 13 348 0.0 0.0 0.00 0.00 0.00 85 1005.4
20260506084614 13 348 0.0 0.0 0.00 0.00 0.00 85 1005.4
20260506084043 13 348 0.0 0.0 0.00 0.00 0.00 85 1005.4
20260506083532 13 348 0.0 0.0 0.00 0.00 0.00 85 1005.4
20260506083055 13 348 0.0 0.0 0.00 0.00 0.00 85 1005.4
20260506082542 13 348 0.0 0.0 0.00 0.00 0.00 85 1005.4
20260506082031 13 348 0.0 0.0 0.00 0.00 0.00 85 1005.4
20260506081556 13 348 0.0 0.0 0.00 0.00 0.00 85 1005.4
20260506081042 13 348 0.0 0.0 0.00 0.00 0.00 85 1005.4
20260506080531 13 348 0.0 0.0 0.00 0.00 0.00 85 1005.4
20260506073059 14 348 0.0 0.0 0.00 0.00 0.00 85 1005.1
20260506072540 14 348 0.0 0.0 0.00 0.00 0.00 85 1005.1
20260506072028 14 348 0.0 0.0 0.00 0.00 0.00 85 1005.0
20260506071554 14 348 0.0 0.0 0.00 0.00 0.00 85 1004.9
20260506071040 14 348 0.0 0.0 0.00 0.00 0.00 85 1004.9
20260506070528 14 348 0.0 0.0 0.00 0.00 0.00 85 1004.9
20260506062516 13 348 0.0 0.0 0.00 0.00 0.00 85 1004.8
20260506062058 13 348 0.0 0.0 0.00 0.00 0.00 85 1004.7
20260506061538 13 348 0.0 0.0 0.00 0.00 0.00 85 1004.7
20260506061100 13 348 0.0 0.0 0.00 0.00 0.00 85 1004.7
20260506060549 13 348 0.0 0.0 0.00 0.00 0.00 85 1004.6
20260506051008 13 348 0.0 0.0 0.00 0.00 0.00 84 1004.5
20260506050556 13 348 0.0 0.0 0.00 0.00 0.00 84 1004.4
20260506045056 13 348 0.0 0.0 0.00 0.00 0.00 84 1004.4
20260506044522 13 348 0.0 0.0 0.00 0.00 0.00 83 1004.3
20260506044007 13 348 0.0 0.0 0.00 0.00 0.00 83 1004.3
20260506043556 13 348 0.0 0.0 0.00 0.00 0.00 83 1004.3
20260506043036 13 348 0.0 0.0 0.00 0.00 0.00 83 1004.2
20260506042511 13 348 0.0 0.0 0.00 0.00 0.00 82 1004.2
20260506042102 13 348 0.0 0.0 0.00 0.00 0.00 82 1004.1
20260506041526 13 348 0.0 0.0 0.00 0.00 0.00 81 1004.1
20260506041011 13 348 0.0 0.0 0.00 0.00 0.00 81 1004.0
20260506040552 14 348 0.0 0.0 0.00 0.00 0.00 81 1004.0
20260506040107 14 348 0.0 0.0 0.00 0.00 0.00 81 1004.0
20260506035540 14 348 0.0 0.0 0.00 0.00 0.00 80 1003.9
20260506035026 14 348 0.0 0.0 0.00 0.00 0.00 80 1003.9
20260506034549 14 348 0.0 0.0 0.00 0.00 0.00 80 1003.7
20260506034027 15 348 0.0 0.0 0.00 0.00 0.00 79 1003.5
20260506033511 15 348 0.0 0.0 0.00 0.00 0.00 79 1003.5
20260506033038 15 348 0.0 0.0 0.00 0.00 0.00 79 1003.5
20260506032521 15 348 0.0 0.0 0.00 0.00 0.00 79 1003.6
20260506032009 15 348 0.0 0.0 0.00 0.00 0.00 78 1003.5
20260506031548 15 348 0.0 0.0 0.00 0.00 0.00 78 1003.5
20260506031028 15 348 0.0 0.0 0.00 0.00 0.00 78 1003.5
20260506030517 15 348 0.0 0.0 0.00 0.00 0.00 77 1003.4
20260506030035 15 348 0.0 0.0 0.00 0.00 0.00 78 1003.4
20260506025523 16 348 0.0 0.0 0.00 0.00 0.00 76 1003.3
20260506025012 16 348 0.0 0.0 0.00 0.00 0.00 76 1003.2
20260506024541 16 348 0.0 0.0 0.00 0.00 0.00 76 1003.2
20260506024015 16 348 0.0 0.0 0.00 0.00 0.00 75 1003.1